Temp
-28 -28 -28 -28 -29 -29 -28 -27 -27 -27 -27 -26 -26 -26 -26 -26 -26 -26 -26 -26 -26 -26 -26 -26 -26 -26 -26 -26 -26 -26 -26 -26 -26 -26 -26 -25 -25 -25 -26 -26 -26 -26 -26 -26 -26 -26 -26 -26 -27 -27 -27 -27 -27 -27 -27 -27 -27 -27 -27 -27 -27 -27 -27
-28 -28 -28 -29 -29 -29 -29 -29 -28 -27 -27 -27 -27 -27 -26 -26 -26 -26 -26 -26 -26 -26 -26 -26 -26 -26 -26 -26 -26 -26 -26 -26 -26 -26 -26 -26 -26 -26 -26 -26 -26 -26 -26 -26 -26 -26 -26 -27 -27 -27 -27 -27 -27 -27 -27 -27 -27 -27 -27 -27 -27 -27 -27
-28 -28 -28 -28 -29 -29 -29 -29 -29 -28 -28 -28 -27 -27 -27 -27 -27 -27 -26 -26 -26 -26 -26 -26 -26 -26 -26 -26 -26 -26 -26 -26 -26 -26 -26 -26 -26 -26 -26 -26 -26 -26 -26 -26 -26 -26 -27 -27 -27 -27 -27 -27 -27 -27 -27 -27 -27 -27 -27 -27 -27 -27 -27
-28 -28 -28 -28 -28 -29 -29 -29 -29 -29 -29 -28 -28 -28 -27 -27 -27 -27 -27 -26 -26 -27 -27 -26 -26 -26 -26 -26 -26 -26 -26 -26 -26 -26 -27 -27 -27 -26 -26 -26 -26 -26 -26 -26 -26 -26 -27 -27 -27 -27 -27 -27 -27 -27 -27 -27 -27 -27 -27 -27 -27 -27 -27
-28 -28 -28 -28 -28 -28 -29 -29 -29 -29 -29 -29 -28 -28 -28 -27 -27 -27 -27 -27 -27 -27 -27 -27 -26 -26 -26 -26 -26 -26 -26 -26 -27 -27 -27 -27 -27 -27 -27 -27 -27 -27 -27 -27 -26 -26 -27 -27 -27 -27 -27 -27 -27 -27 -27 -27 -27 -27 -27 -27 -27 -27 -27
-30 -29 -29 -29 -29 -28 -29 -29 -29 -29 -29 -29 -29 -28 -28 -28 -27 -27 -27 -27 -27 -27 -27 -27 -27 -27 -26 -26 -26 -26 -26 -27 -27 -27 -27 -27 -27 -27 -27 -27 -27 -27 -27 -27 -27 -27 -27 -27 -27 -27 -27 -27 -27 -27 -27 -28 -27 -27 -27 -28 -28 -27 -28
-30 -30 -30 -30 -30 -30 -29 -29 -30 -29 -29 -29 -29 -29 -28 -28 -28 -27 -27 -27 -27 -27 -27 -27 -27 -27 -26 -26 -26 -26 -26 -27 -27 -27 -27 -27 -27 -27 -27 -27 -27 -27 -27 -27 -27 -27 -27 -27 -27 -27 -27 -27 -27 -27 -28 -28 -27 -27 -28 -28 -28 -27 -28
-31 -32 -32 -32 -32 -31 -31 -31 -30 -30 -30 -29 -29 -29 -29 -28 -28 -28 -27 -27 -28 -27 -27 -27 -27 -27 -27 -26 -26 -26 -27 -27 -27 -27 -27 -27 -27 -27 -27 -27 -27 -27 -27 -27 -27 -27 -27 -27 -27 -27 -27 -27 -27 -28 -28 -28 -28 -27 -28 -28 -27 -28 -28
-33 -33 -33 -33 -33 -33 -32 -31 -31 -31 -30 -29 -29 -29 -29 -29 -29 -28 -28 -28 -28 -28 -27 -27 -27 -27 -27 -27 -26 -26 -27 -27 -27 -27 -27 -27 -27 -27 -27 -27 -27 -27 -27 -27 -27 -27 -27 -27 -27 -27 -27 -27 -28 -28 -28 -28 -28 -28 -27 -27 -28 -28 -28
-35 -35 -35 -35 -34 -34 -33 -32 -32 -32 -31 -30 -30 -30 -29 -29 -29 -29 -28 -28 -28 -28 -27 -27 -27 -27 -27 -27 -27 -27 -27 -27 -27 -27 -27 -27 -27 -27 -27 -27 -27 -27 -27 -27 -27 -27 -27 -27 -27 -27 -27 -28 -28 -28 -28 -28 -28 -27 -27 -28 -28 -28 -29
-36 -36 -36 -36 -35 -35 -34 -34 -33 -32 -32 -31 -31 -31 -30 -29 -29 -29 -29 -28 -28 -28 -27 -27 -27 -27 -27 -27 -27 -27 -28 -28 -28 -28 -28 -27 -27 -27 -27 -27 -27 -27 -27 -27 -27 -27 -27 -27 -27 -27 -28 -28 -28 -28 -28 -28 -28 -27 -28 -28 -28 -28 -29
-36 -36 -36 -36 -36 -35 -35 -35 -34 -33 -32 -32 -32 -32 -31 -30 -30 -29 -29 -29 -28 -28 -28 -27 -27 -27 -28 -28 -27 -28 -28 -28 -28 -28 -28 -28 -27 -27 -27 -27 -27 -27 -27 -27 -27 -27 -27 -27 -27 -27 -28 -28 -28 -28 -28 -28 -28 -28 -28 -28 -28 -28 -29
-36 -36 -36 -36 -36 -36 -35 -35 -34 -34 -33 -33 -32 -32 -31 -31 -30 -30 -29 -29 -29 -29 -28 -28 -27 -27 -28 -28 -28 -28 -28 -28 -28 -28 -28 -28 -27 -27 -27 -27 -27 -27 -27 -27 -27 -27 -27 -27 -27 -28 -28 -28 -28 -28 -28 -28 -28 -28 -28 -28 -28 -29 -29
-36 -36 -36 -36 -36 -35 -35 -35 -34 -34 -33 -33 -33 -32 -32 -31 -31 -31 -30 -29 -29 -29 -29 -28 -28 -28 -28 -28 -28 -28 -28 -28 -28 -28 -28 -28 -27 -27 -27 -27 -27 -27 -27 -27 -28 -28 -27 -27 -28 -28 -28 -28 -28 -28 -28 -28 -28 -28 -28 -28 -28 -29 -29
-36 -36 -36 -36 -35 -35 -35 -34 -34 -34 -33 -33 -32 -32 -32 -31 -31 -31 -30 -29 -29 -29 -29 -29 -29 -29 -29 -28 -28 -28 -28 -28 -28 -28 -28 -28 -28 -28 -28 -28 -28 -28 -28 -28 -28 -28 -28 -28 -28 -28 -28 -28 -28 -28 -27 -27 -28 -28 -28 -28 -29 -29 -29
-36 -36 -36 -35 -35 -35 -34 -34 -34 -33 -33 -33 -32 -32 -32 -32 -31 -31 -30 -30 -29 -29 -29 -29 -29 -29 -29 -28 -28 -28 -28 -28 -28 -28 -28 -28 -28 -28 -28 -28 -28 -28 -28 -28 -28 -28 -28 -28 -28 -28 -28 -28 -28 -27 -27 -28 -28 -28 -28 -28 -29 -29 -30
-36 -36 -35 -35 -35 -34 -34 -34 -33 -33 -33 -32 -32 -32 -32 -32 -31 -31 -30 -30 -30 -29 -29 -29 -29 -29 -29 -29 -29 -29 -28 -28 -28 -28 -28 -28 -28 -28 -28 -28 -28 -29 -29 -28 -28 -28 -28 -28 -28 -28 -28 -28 -27 -27 -27 -28 -28 -28 -29 -29 -29 -29 -30
-36 -36 -35 -35 -35 -34 -34 -33 -33 -33 -32 -32 -32 -32 -32 -31 -31 -31 -30 -30 -30 -29 -29 -29 -29 -29 -29 -29 -29 -29 -29 -29 -29 -29 -29 -28 -28 -28 -29 -29 -29 -29 -29 -28 -28 -28 -28 -28 -28 -28 -28 -28 -27 -28 -28 -28 -28 -29 -29 -29 -29 -29 -30
-36 -35 -35 -35 -34 -34 -34 -33 -33 -33 -33 -32 -32 -32 -31 -31 -31 -30 -30 -30 -29 -29 -29 -29 -29 -29 -29 -29 -29 -29 -29 -29 -29 -29 -29 -29 -28 -29 -29 -29 -29 -29 -29 -28 -28 -28 -28 -28 -28 -28 -28 -28 -28 -28 -28 -28 -29 -29 -29 -29 -30 -30 -30
-36 -35 -35 -34 -34 -34 -33 -33 -33 -33 -33 -32 -32 -32 -31 -31 -30 -30 -30 -30 -29 -29 -29 -29 -29 -29 -29 -29 -29 -29 -29 -29 -29 -29 -29 -29 -29 -29 -30 -29 -29 -29 -29 -29 -28 -28 -28 -28 -28 -28 -28 -28 -28 -28 -29 -29 -29 -29 -29 -30 -30 -30 -30
-35 -35 -35 -34 -34 -34 -33 -33 -33 -33 -32 -32 -32 -31 -31 -31 -30 -30 -30 -30 -30 -29 -29 -30 -30 -29 -29 -29 -29 -29 -29 -29 -29 -29 -29 -29 -29 -30 -30 -29 -29 -29 -29 -29 -28 -28 -28 -28 -28 -28 -28 -28 -29 -29 -29 -29 -29 -29 -30 -30 -30 -30 -31
-35 -35 -34 -34 -34 -33 -33 -33 -33 -32 -32 -32 -31 -31 -31 -31 -30 -30 -30 -30 -30 -30 -30 -30 -30 -30 -30 -30 -30 -29 -29 -29 -29 -29 -30 -30 -30 -30 -30 -29 -29 -29 -29 -29 -28 -28 -28 -28 -28 -28 -29 -29 -29 -30 -29 -29 -30 -30 -30 -30 -30 -31 -32
-35 -35 -34 -34 -33 -33 -33 -33 -33 -32 -32 -32 -31 -31 -31 -31 -30 -30 -30 -30 -30 -30 -30 -30 -30 -30 -30 -30 -30 -30 -30 -30 -30 -30 -30 -30 -30 -30 -30 -29 -29 -29 -29 -29 -28 -28 -28 -29 -29 -29 -29 -30 -30 -30 -30 -30 -30 -30 -30 -31 -31 -32 -32
-35 -35 -34 -34 -33 -33 -33 -33 -32 -32 -32 -31 -31 -31 -31 -31 -30 -30 -30 -30 -30 -30 -30 -30 -30 -30 -30 -30 -30 -30 -30 -30 -30 -30 -30 -30 -30 -30 -29 -29 -29 -29 -29 -29 -29 -29 -29 -29 -29 -30 -30 -30 -30 -30 -30 -30 -31 -31 -31 -31 -32 -32 -32
-34 -34 -34 -34 -33 -33 -33 -33 -32 -32 -31 -31 -31 -31 -31 -31 -31 -30 -30 -30 -30 -30 -30 -30 -30 -30 -30 -30 -30 -30 -30 -30 -30 -30 -30 -30 -29 -29 -29 -29 -29 -29 -29 -29 -29 -29 -29 -30 -30 -30 -30 -30 -30 -30 -31 -31 -31 -32 -32 -32 -32 -32 -32
-34 -34 -34 -33 -33 -33 -33 -32 -32 -31 -31 -31 -31 -31 -31 -31 -31 -31 -31 -31 -31 -31 -31 -31 -31 -31 -31 -30 -30 -30 -30 -30 -30 -30 -29 -29 -29 -29 -29 -29 -29 -29 -29 -29 -29 -30 -30 -30 -30 -30 -30 -30 -30 -31 -31 -32 -32 -32 -32 -33 -33 -33 -33
-34 -34 -33 -33 -33 -33 -32 -32 -32 -31 -31 -31 -31 -31 -31 -31 -31 -31 -31 -31 -31 -31 -31 -31 -31 -31 -30 -30 -30 -30 -30 -30 -29 -29 -29 -29 -29 -29 -29 -29 -29 -29 -30 -30 -30 -30 -30 -30 -30 -30 -30 -31 -31 -31 -32 -32 -32 -33 -33 -33 -33 -33 -33
-33 -33 -33 -33 -33 -32 -32 -32 -32 -32 -32 -31 -31 -31 -31 -31 -31 -31 -31 -31 -31 -31 -31 -31 -31 -31 -30 -30 -30 -30 -30 -30 -29 -29 -29 -29 -29 -29 -29 -29 -30 -30 -30 -30 -30 -30 -30 -30 -30 -30 -31 -31 -31 -32 -32 -32 -32 -33 -33 -33 -33 -33 -33
-33 -33 -33 -33 -32 -32 -32 -32 -32 -31 -31 -32 -31 -31 -31 -31 -31 -31 -31 -31 -31 -31 -31 -31 -31 -30 -30 -30 -30 -30 -30 -30 -29 -29 -29 -29 -29 -29 -30 -30 -30 -30 -30 -30 -30 -30 -30 -30 -30 -31 -31 -31 -32 -32 -32 -32 -33 -33 -33 -33 -33 -33 -33
-33 -33 -33 -32 -32 -32 -32 -32 -31 -31 -32 -32 -31 -31 -31 -31 -31 -31 -31 -31 -31 -31 -31 -31 -31 -30 -30 -30 -30 -30 -30 -30 -29 -29 -29 -29 -30 -30 -30 -30 -30 -30 -30 -30 -30 -30 -30 -31 -31 -31 -31 -31 -32 -32 -32 -32 -32 -33 -33 -33 -33 -33 -33
-32 -32 -32 -32 -32 -32 -32 -32 -31 -31 -32 -32 -31 -31 -31 -31 -31 -31 -31 -31 -31 -31 -31 -31 -30 -30 -30 -30 -30 -30 -30 -29 -29 -29 -29 -29 -30 -30 -30 -30 -30 -30 -30 -31 -31 -31 -31 -31 -31 -31 -32 -32 -32 -32 -32 -32 -33 -33 -33 -33 -33 -33 -34
-32 -32 -32 -32 -32 -32 -32 -31 -31 -31 -31 -31 -31 -31 -31 -31 -31 -31 -31 -31 -31 -31 -31 -31 -30 -30 -30 -30 -30 -30 -29 -29 -29 -29 -29 -30 -30 -30 -30 -30 -31 -31 -31 -31 -31 -31 -31 -31 -31 -32 -32 -32 -32 -33 -33 -33 -33 -33 -33 -33 -33 -33 -34
-32 -32 -32 -32 -32 -32 -31 -31 -31 -31 -31 -31 -31 -31 -31 -31 -31 -31 -31 -31 -31 -31 -31 -30 -30 -30 -30 -30 -30 -30 -29 -29 -29 -29 -30 -30 -30 -30 -30 -31 -31 -31 -31 -31 -31 -31 -31 -31 -32 -32 -32 -33 -33 -33 -33 -33 -33 -33 -33 -33 -33 -33 -34
-32 -32 -32 -32 -32 -31 -31 -31 -31 -31 -31 -31 -31 -31 -31 -31 -31 -31 -31 -31 -31 -31 -30 -30 -30 -30 -30 -30 -30 -30 -29 -29 -29 -30 -30 -30 -30 -31 -31 -31 -31 -31 -31 -31 -31 -31 -31 -32 -32 -32 -33 -33 -33 -33 -33 -33 -33 -33 -33 -33 -34 -34 -34
-32 -32 -32 -32 -32 -32 -31 -31 -31 -31 -31 -31 -31 -31 -31 -31 -31 -31 -31 -31 -30 -30 -30 -30 -30 -30 -30 -30 -30 -30 -30 -29 -30 -30 -30 -31 -31 -31 -31 -31 -31 -31 -31 -31 -31 -31 -32 -32 -32 -33 -33 -33 -33 -33 -33 -33 -33 -33 -33 -33 -34 -34 -34
-32 -32 -32 -32 -32 -32 -32 -31 -31 -31 -31 -31 -31 -31 -31 -31 -31 -31 -30 -30 -30 -30 -30 -30 -30 -30 -30 -30 -30 -30 -30 -30 -30 -30 -31 -31 -31 -31 -31 -31 -31 -31 -31 -31 -31 -32 -32 -32 -33 -33 -33 -33 -33 -33 -33 -33 -33 -33 -33 -33 -34 -34 -34
Height
5354 5355 5356 5358 5360 5362 5364 5366 5369 5371 5373 5376 5380 5383 5386 5387 5389 5391 5393 5394 5396 5398 5399 5401 5402 5403 5404 5404 5405 5407 5408 5409 5410 5411 5413 5414 5415 5416 5417 5417 5418 5420 5422 5421 5420 5420 5420 5418 5418 5417 5414 5412 5412 5410 5407 5406 5405 5404 5404 5403 5400 5398 5394
5342 5343 5345 5347 5349 5350 5351 5354 5357 5359 5361 5365 5369 5372 5375 5378 5379 5381 5383 5385 5388 5390 5392 5393 5394 5396 5397 5397 5398 5400 5401 5402 5403 5404 5406 5407 5408 5409 5409 5410 5411 5412 5413 5414 5413 5412 5412 5411 5410 5410 5407 5405 5405 5403 5400 5398 5397 5395 5394 5393 5390 5388 5385
5329 5331 5332 5334 5337 5338 5339 5341 5344 5347 5350 5353 5358 5361 5365 5368 5370 5371 5374 5377 5379 5381 5383 5385 5387 5388 5389 5390 5391 5393 5394 5395 5396 5397 5399 5400 5400 5401 5402 5402 5403 5404 5405 5406 5406 5404 5403 5403 5402 5401 5399 5398 5397 5396 5394 5392 5390 5387 5385 5383 5380 5378 5375
5315 5316 5318 5320 5323 5325 5326 5328 5331 5335 5338 5342 5346 5350 5354 5357 5359 5362 5365 5368 5370 5372 5374 5376 5379 5381 5381 5382 5385 5386 5387 5388 5389 5390 5391 5392 5393 5394 5394 5394 5395 5397 5397 5398 5398 5397 5395 5394 5394 5393 5391 5390 5389 5388 5386 5385 5382 5380 5377 5374 5371 5368 5365
5299 5300 5301 5304 5307 5309 5312 5314 5318 5322 5326 5330 5334 5339 5343 5347 5349 5352 5355 5358 5361 5363 5366 5368 5371 5372 5373 5375 5378 5379 5380 5381 5382 5383 5384 5385 5385 5386 5386 5387 5388 5389 5389 5390 5390 5390 5388 5386 5386 5385 5383 5381 5380 5379 5379 5377 5374 5371 5369 5366 5362 5359 5355
5285 5285 5285 5287 5290 5292 5296 5299 5303 5308 5313 5318 5322 5327 5332 5336 5339 5341 5345 5349 5351 5354 5357 5360 5362 5364 5366 5368 5371 5372 5372 5373 5374 5375 5376 5377 5378 5379 5379 5380 5381 5381 5381 5382 5382 5382 5381 5379 5378 5377 5376 5374 5372 5371 5370 5368 5366 5363 5359 5356 5353 5350 5345
5272 5272 5272 5273 5274 5276 5279 5283 5288 5293 5299 5305 5310 5315 5321 5325 5329 5332 5335 5339 5342 5345 5348 5351 5354 5356 5358 5361 5363 5364 5364 5365 5366 5368 5369 5370 5371 5371 5372 5373 5373 5373 5374 5374 5374 5374 5373 5372 5371 5370 5368 5366 5364 5363 5361 5359 5357 5355 5351 5346 5343 5340 5336
5261 5260 5260 5260 5261 5262 5264 5268 5273 5279 5285 5291 5297 5303 5309 5314 5318 5322 5326 5329 5333 5336 5339 5342 5345 5348 5351 5353 5355 5356 5357 5358 5359 5361 5362 5363 5363 5364 5365 5366 5366 5366 5366 5366 5366 5366 5365 5364 5364 5363 5361 5359 5357 5355 5354 5351 5348 5346 5343 5339 5335 5331 5326
5250 5250 5249 5249 5249 5251 5252 5255 5260 5266 5272 5278 5284 5291 5298 5303 5307 5312 5317 5321 5324 5328 5331 5334 5337 5340 5343 5345 5346 5348 5350 5351 5352 5354 5354 5355 5356 5357 5358 5358 5358 5358 5358 5358 5359 5358 5356 5356 5356 5355 5353 5352 5350 5348 5346 5343 5340 5338 5334 5331 5328 5323 5316
5241 5240 5240 5240 5240 5240 5242 5244 5248 5253 5259 5265 5272 5279 5285 5291 5296 5301 5307 5312 5316 5320 5323 5326 5329 5332 5334 5336 5338 5340 5343 5344 5345 5346 5347 5348 5348 5349 5350 5350 5350 5351 5350 5350 5350 5349 5348 5348 5348 5346 5345 5345 5343 5341 5339 5335 5332 5329 5326 5322 5320 5316 5308
5233 5233 5232 5231 5231 5232 5233 5235 5238 5241 5247 5254 5261 5267 5274 5280 5285 5291 5297 5303 5308 5313 5316 5319 5321 5324 5326 5328 5331 5334 5335 5337 5338 5339 5340 5340 5341 5342 5342 5343 5343 5343 5343 5343 5342 5341 5340 5340 5340 5338 5337 5337 5335 5334 5331 5327 5324 5321 5318 5314 5311 5308 5302
5227 5226 5226 5225 5225 5226 5226 5227 5229 5232 5237 5245 5252 5259 5265 5270 5276 5282 5289 5295 5300 5304 5308 5311 5313 5316 5319 5322 5324 5326 5328 5329 5331 5332 5333 5333 5334 5335 5335 5335 5336 5336 5335 5335 5335 5334 5333 5332 5331 5331 5330 5328 5327 5326 5323 5320 5316 5312 5309 5306 5302 5299 5294
5222 5221 5221 5221 5221 5221 5220 5221 5223 5226 5232 5238 5245 5252 5258 5264 5268 5274 5281 5288 5293 5296 5300 5303 5306 5309 5312 5314 5317 5319 5320 5322 5324 5325 5326 5326 5327 5328 5328 5328 5328 5328 5328 5328 5327 5327 5326 5324 5324 5324 5322 5320 5319 5318 5315 5312 5309 5305 5301 5298 5294 5290 5285
5217 5217 5217 5217 5217 5216 5217 5218 5220 5223 5228 5234 5240 5246 5253 5258 5263 5267 5273 5280 5286 5290 5293 5296 5299 5301 5304 5307 5309 5312 5314 5315 5318 5319 5320 5320 5319 5320 5320 5320 5320 5320 5321 5321 5320 5320 5319 5317 5317 5316 5315 5312 5310 5310 5308 5305 5302 5298 5294 5291 5287 5281 5275
5212 5212 5212 5213 5213 5213 5214 5216 5218 5222 5226 5231 5236 5242 5248 5253 5257 5261 5267 5274 5279 5283 5287 5289 5292 5295 5298 5300 5303 5305 5307 5309 5311 5312 5312 5312 5312 5312 5312 5312 5312 5312 5313 5313 5313 5313 5313 5311 5310 5309 5307 5305 5303 5302 5300 5297 5294 5290 5286 5284 5280 5273 5266
5208 5208 5209 5210 5210 5210 5212 5214 5217 5220 5224 5229 5234 5239 5244 5248 5251 5257 5263 5268 5272 5277 5280 5283 5286 5289 5291 5294 5296 5299 5301 5303 5305 5305 5305 5305 5305 5305 5305 5304 5304 5305 5306 5306 5306 5306 5306 5305 5304 5302 5300 5298 5297 5295 5293 5290 5286 5282 5278 5275 5271 5265 5259
5204 5204 5205 5206 5207 5208 5210 5213 5215 5218 5222 5226 5231 5236 5240 5244 5248 5253 5258 5262 5266 5271 5274 5278 5280 5283 5285 5287 5290 5292 5295 5297 5298 5298 5298 5298 5298 5298 5298 5297 5298 5299 5299 5299 5299 5299 5299 5298 5297 5295 5293 5291 5290 5288 5286 5283 5278 5274 5270 5266 5262 5257 5252
5200 5201 5202 5203 5204 5206 5208 5211 5214 5217 5221 5224 5229 5233 5236 5241 5245 5249 5253 5257 5262 5266 5269 5272 5275 5277 5279 5282 5284 5287 5289 5290 5291 5291 5291 5291 5291 5291 5291 5291 5292 5293 5293 5293 5293 5292 5292 5291 5290 5289 5287 5285 5283 5280 5277 5274 5271 5267 5262 5258 5253 5248 5244
5197 5198 5200 5201 5202 5204 5207 5209 5212 5216 5219 5223 5226 5230 5234 5238 5242 5245 5249 5253 5258 5261 5264 5267 5269 5271 5273 5276 5278 5281 5283 5284 5284 5284 5284 5284 5284 5284 5284 5285 5286 5287 5287 5287 5287 5286 5285 5285 5284 5282 5280 5278 5276 5273 5270 5266 5263 5259 5254 5250 5245 5239 5235
5194 5196 5198 5199 5201 5203 5205 5207 5211 5214 5218 5221 5224 5228 5231 5235 5239 5241 5244 5249 5253 5256 5259 5262 5264 5266 5268 5270 5273 5275 5276 5277 5278 5278 5277 5277 5278 5278 5279 5280 5281 5281 5281 5280 5280 5280 5279 5278 5277 5276 5274 5271 5268 5265 5262 5259 5255 5252 5247 5242 5238 5232 5226
5192 5194 5196 5198 5200 5201 5203 5206 5209 5213 5215 5218 5221 5225 5229 5232 5235 5238 5241 5245 5249 5252 5254 5256 5259 5261 5263 5265 5267 5269 5270 5271 5272 5272 5271 5271 5272 5273 5274 5275 5275 5275 5274 5274 5274 5274 5273 5272 5271 5269 5267 5265 5261 5258 5255 5252 5248 5244 5239 5235 5230 5225 5220
5191 5193 5195 5197 5199 5200 5203 5206 5208 5211 5213 5216 5219 5222 5225 5229 5232 5235 5239 5242 5245 5247 5250 5252 5254 5256 5258 5260 5261 5262 5263 5265 5266 5266 5266 5266 5267 5268 5268 5269 5269 5269 5269 5269 5268 5268 5267 5266 5265 5263 5261 5258 5255 5252 5248 5245 5241 5236 5231 5226 5221 5217 5213
5190 5192 5194 5197 5198 5200 5202 5205 5207 5209 5211 5214 5216 5219 5223 5226 5229 5232 5235 5238 5241 5244 5246 5248 5250 5251 5253 5254 5255 5256 5258 5259 5260 5260 5260 5261 5262 5262 5263 5263 5263 5264 5264 5264 5263 5262 5261 5260 5259 5257 5255 5252 5249 5246 5242 5238 5234 5229 5223 5219 5214 5209 5206
5190 5192 5194 5196 5198 5200 5202 5203 5205 5208 5210 5212 5214 5217 5221 5224 5226 5229 5232 5235 5237 5240 5242 5244 5245 5247 5248 5249 5250 5251 5253 5254 5254 5255 5256 5256 5257 5257 5258 5258 5258 5259 5259 5258 5258 5257 5256 5255 5253 5251 5249 5247 5243 5240 5236 5232 5227 5222 5218 5212 5207 5203 5201
5191 5192 5194 5195 5197 5199 5201 5202 5204 5206 5209 5211 5213 5216 5219 5222 5224 5226 5229 5232 5234 5237 5238 5240 5241 5242 5243 5245 5246 5247 5248 5248 5249 5250 5251 5252 5252 5253 5253 5253 5254 5254 5254 5253 5253 5252 5251 5250 5248 5246 5244 5242 5238 5235 5230 5226 5221 5216 5212 5206 5201 5197 5195
5190 5192 5193 5195 5197 5198 5199 5201 5203 5206 5208 5210 5213 5215 5218 5220 5222 5225 5227 5229 5231 5233 5235 5236 5238 5239 5240 5241 5242 5242 5243 5244 5245 5246 5247 5247 5248 5248 5249 5249 5249 5249 5249 5248 5248 5247 5246 5245 5243 5242 5239 5236 5233 5230 5226 5221 5217 5211 5206 5201 5196 5192 5188
5190 5191 5193 5194 5196 5197 5198 5200 5202 5205 5207 5210 5212 5214 5216 5219 5221 5223 5225 5227 5229 5230 5232 5234 5235 5236 5236 5237 5238 5238 5239 5240 5241 5242 5243 5243 5244 5244 5244 5245 5245 5244 5244 5244 5243 5242 5241 5240 5238 5237 5234 5231 5228 5225 5221 5217 5213 5208 5203 5198 5194 5189 5184
5190 5191 5192 5194 5195 5197 5198 5200 5202 5204 5207 5209 5211 5213 5216 5218 5220 5221 5223 5224 5226 5228 5229 5231 5232 5232 5233 5234 5234 5235 5236 5236 5237 5238 5239 5239 5240 5240 5240 5240 5240 5240 5240 5240 5239 5238 5237 5235 5234 5231 5229 5226 5223 5220 5217 5213 5209 5205 5200 5195 5191 5186 5181
5190 5191 5193 5194 5195 5197 5198 5200 5202 5204 5206 5208 5211 5213 5214 5216 5218 5219 5221 5222 5223 5225 5227 5228 5229 5230 5230 5231 5231 5232 5233 5233 5234 5234 5235 5235 5236 5236 5236 5236 5236 5236 5236 5235 5234 5233 5232 5231 5229 5226 5224 5221 5218 5215 5212 5209 5205 5201 5197 5192 5187 5183 5178
5191 5192 5193 5194 5195 5197 5198 5200 5202 5204 5206 5208 5210 5211 5213 5215 5216 5218 5219 5220 5221 5223 5224 5225 5226 5227 5228 5228 5229 5229 5229 5230 5230 5231 5231 5231 5232 5232 5232 5233 5232 5232 5232 5231 5230 5229 5228 5226 5224 5221 5218 5216 5213 5211 5207 5204 5200 5197 5194 5190 5185 5179 5175
5191 5192 5193 5194 5195 5197 5198 5200 5202 5204 5205 5207 5208 5210 5211 5213 5214 5216 5217 5218 5219 5221 5222 5223 5224 5225 5225 5226 5226 5226 5227 5227 5227 5227 5227 5228 5228 5229 5229 5229 5229 5228 5228 5227 5226 5225 5224 5221 5219 5216 5214 5212 5209 5206 5203 5199 5196 5192 5189 5186 5182 5178 5173
5191 5192 5193 5194 5195 5196 5198 5200 5201 5203 5204 5206 5207 5208 5209 5211 5212 5214 5215 5216 5217 5219 5220 5221 5222 5222 5223 5223 5223 5224 5224 5224 5224 5224 5224 5225 5225 5225 5225 5225 5225 5225 5224 5224 5223 5221 5219 5217 5215 5212 5210 5208 5205 5202 5198 5195 5192 5188 5185 5182 5179 5175 5171
5190 5191 5192 5193 5195 5196 5198 5199 5200 5202 5203 5204 5205 5207 5208 5209 5210 5212 5213 5214 5215 5216 5217 5218 5219 5220 5220 5221 5221 5221 5221 5221 5221 5221 5222 5222 5222 5222 5222 5222 5222 5222 5221 5220 5219 5217 5215 5213 5211 5209 5206 5204 5201 5198 5195 5191 5188 5185 5181 5178 5175 5172 5168
5190 5190 5191 5192 5194 5195 5197 5198 5199 5200 5201 5202 5203 5205 5206 5207 5208 5209 5210 5212 5213 5214 5214 5216 5216 5217 5218 5218 5218 5218 5218 5218 5219 5219 5219 5219 5219 5219 5219 5219 5219 5218 5218 5217 5215 5213 5211 5209 5207 5205 5203 5200 5197 5194 5191 5188 5185 5182 5178 5175 5172 5168 5165
5190 5190 5191 5192 5193 5194 5195 5196 5197 5198 5199 5200 5201 5202 5203 5204 5206 5207 5208 5209 5210 5211 5212 5213 5214 5215 5215 5215 5216 5216 5216 5216 5216 5216 5216 5217 5217 5217 5217 5217 5216 5215 5214 5213 5211 5210 5208 5206 5204 5201 5199 5196 5193 5190 5187 5184 5181 5178 5175 5173 5170 5166 5163
5191 5191 5191 5192 5192 5193 5193 5194 5195 5196 5197 5197 5198 5199 5201 5202 5203 5204 5205 5206 5208 5209 5210 5211 5211 5212 5213 5213 5213 5214 5214 5214 5214 5214 5214 5214 5214 5214 5214 5214 5213 5212 5211 5209 5208 5206 5204 5202 5200 5198 5195 5192 5190 5187 5184 5181 5178 5175 5173 5170 5167 5164 5161
Wind_Speed
75 75 75 74 73 73 74 76 77 77 77 76 73 69 66 64 62 58 54 52 51 52 52 52 51 50 50 50 49 49 49 49 50 52 54 55 55 54 52 51 50 50 49 48 48 49 51 53 55 56 59 60 61 62 62 62 62 62 62 63 65 67 69
77 78 78 77 76 74 73 74 75 76 77 75 73 71 69 67 64 60 56 53 51 51 52 54 52 48 47 48 48 48 49 50 50 51 52 53 53 53 52 52 51 50 49 49 50 50 51 53 55 57 60 62 62 63 63 63 64 64 65 66 67 68 69
80 80 80 80 79 78 76 74 73 74 75 74 73 72 70 68 65 62 58 54 53 52 53 54 52 47 46 47 47 47 49 50 49 48 50 52 54 54 54 54 53 51 51 51 51 52 52 54 56 59 61 63 63 64 64 64 65 65 66 67 69 69 69
83 84 84 83 83 81 80 78 75 73 73 73 73 72 70 68 67 64 60 56 55 55 55 55 53 50 48 48 47 47 49 50 46 44 46 49 51 53 54 55 55 54 54 54 54 53 53 55 57 60 62 63 64 65 65 65 65 65 66 68 70 69 68
77 80 83 84 84 85 84 83 80 76 73 72 71 71 70 68 68 67 63 59 58 57 57 57 55 53 52 50 48 49 50 48 44 42 42 43 45 46 48 50 51 53 54 54 54 54 54 56 58 60 62 63 65 65 65 64 64 65 67 69 69 68 68
67 70 74 76 79 82 84 85 84 81 76 72 71 70 69 68 68 68 66 62 61 60 59 58 57 55 53 51 48 49 50 47 44 42 40 39 39 40 41 43 46 49 52 53 53 54 55 57 58 60 61 62 64 64 63 63 63 65 68 69 68 67 68
64 66 68 69 71 74 77 79 82 83 81 76 72 70 69 69 68 68 68 66 64 63 61 59 58 57 54 50 49 51 52 47 43 40 37 37 38 38 38 40 42 46 49 51 52 53 55 56 57 58 59 61 62 61 60 61 64 66 67 67 66 66 68
60 62 64 65 66 67 69 71 74 79 82 79 74 71 70 69 69 68 68 68 66 63 61 59 58 58 56 52 52 55 53 47 41 37 35 36 37 39 39 40 41 43 45 48 50 52 54 56 56 57 58 59 59 58 59 62 65 66 65 64 64 66 68
53 54 55 57 59 61 63 65 66 71 79 80 76 72 70 69 69 69 69 69 66 62 59 58 57 57 57 56 57 56 51 44 39 37 36 36 37 38 40 42 42 42 44 46 48 51 53 55 55 56 56 56 55 56 59 63 65 64 63 63 64 66 68
47 47 48 49 51 53 54 57 59 63 71 77 75 72 71 69 68 68 68 68 65 61 58 57 57 57 58 60 59 54 46 41 39 37 37 37 38 39 41 43 44 44 45 46 48 52 53 53 54 55 54 53 54 57 60 62 63 62 61 63 64 65 67
42 41 40 39 40 42 44 47 50 54 62 70 71 68 69 70 68 66 65 65 63 61 58 56 56 58 59 59 56 49 43 41 39 38 37 38 40 42 44 46 46 46 47 48 50 52 53 52 53 53 52 52 54 57 60 61 61 61 61 63 65 65 66
34 31 29 29 31 33 35 36 40 45 51 59 62 62 63 67 68 66 63 61 60 60 59 56 55 57 58 57 53 47 44 42 40 39 40 41 42 45 48 49 49 48 48 50 51 52 51 51 52 51 51 53 55 57 59 59 60 60 61 64 66 66 66
28 26 26 27 29 30 29 27 29 33 38 46 54 56 55 57 61 64 63 59 57 57 57 55 55 56 56 54 51 47 44 43 40 40 41 42 43 46 49 51 51 50 49 51 51 50 49 50 51 49 50 53 56 57 58 58 58 60 62 64 65 66 66
28 28 27 26 28 28 23 20 21 26 32 40 47 51 50 48 49 54 59 60 57 55 55 55 55 56 53 49 47 44 42 42 41 40 41 41 43 47 50 52 52 51 51 52 51 49 48 49 49 48 50 53 55 56 56 57 58 60 63 64 64 65 65
28 28 26 24 25 25 20 18 21 25 30 36 41 46 47 44 44 48 52 55 56 54 54 55 55 53 49 46 44 43 42 41 40 40 40 42 45 48 51 53 52 51 51 52 50 48 47 47 47 48 51 53 54 55 56 58 59 61 63 63 63 64 65
26 27 25 21 21 22 19 19 23 26 29 32 36 40 41 40 43 46 46 49 53 53 53 54 52 48 45 44 45 46 44 43 41 40 41 43 47 50 52 51 50 50 50 49 48 47 46 46 47 49 51 52 53 55 56 58 60 61 63 63 63 63 64
25 26 21 17 19 22 21 21 23 25 28 30 32 34 33 33 38 43 44 47 51 51 51 51 49 46 44 44 46 46 44 42 41 40 41 43 47 50 51 50 49 48 47 46 45 45 45 46 48 50 51 51 53 54 56 58 59 60 62 63 62 62 63
24 25 19 14 16 20 21 21 23 24 25 26 28 28 26 28 32 37 40 44 46 46 46 46 44 43 42 42 41 40 39 39 39 39 40 43 46 49 49 49 47 46 44 43 43 44 46 47 48 49 49 50 52 54 56 58 59 59 61 61 62 63 63
24 23 17 13 15 18 21 21 22 22 22 22 23 23 23 26 29 32 35 39 41 42 42 40 39 39 40 39 38 36 36 37 38 39 41 43 45 47 48 47 45 43 42 42 44 45 46 46 46 46 48 50 52 54 55 57 58 59 60 60 61 63 62
22 21 15 14 15 18 19 19 20 20 20 20 21 22 24 27 30 32 34 36 38 38 37 36 36 37 39 38 37 36 37 37 39 41 42 43 43 45 45 44 41 40 41 42 43 43 43 43 43 45 47 50 52 53 54 55 57 58 59 59 60 61 59
21 19 14 13 14 15 17 17 17 18 18 20 22 25 27 30 32 32 32 32 32 32 33 34 34 36 37 37 36 37 38 38 39 40 40 40 40 41 42 41 40 40 41 41 41 40 40 41 42 44 47 49 50 51 52 55 57 57 58 59 60 59 55
19 17 12 10 11 15 17 15 14 16 17 19 22 23 24 25 25 25 24 25 26 28 29 31 33 34 35 36 36 37 38 37 37 37 37 36 36 37 39 39 39 39 39 38 37 37 38 39 41 44 45 46 47 49 52 54 55 56 58 59 59 57 53
16 16 12 9 11 14 15 15 15 15 14 15 17 18 18 19 21 22 23 24 25 26 28 30 32 33 35 36 36 37 36 35 35 35 35 35 35 37 38 38 37 36 35 34 34 35 37 39 41 42 43 44 46 49 52 53 53 55 57 57 56 54 50
16 17 13 9 11 13 15 16 15 13 11 12 15 17 19 21 23 23 23 23 24 25 27 29 31 32 34 34 35 35 34 33 33 33 32 32 33 34 34 33 32 31 31 32 33 34 36 38 39 40 41 43 46 48 49 50 52 54 55 54 53 51 48
13 15 13 11 13 14 13 14 13 11 12 13 16 18 19 20 21 20 19 20 21 24 26 28 29 30 31 31 31 31 31 30 30 29 28 28 29 29 28 28 29 29 29 31 32 33 35 36 37 38 40 42 44 45 46 48 51 53 53 51 51 50 47
9 11 11 11 12 11 11 13 14 14 15 16 17 17 17 17 16 16 17 19 21 23 25 26 26 26 26 26 26 26 26 26 26 25 25 25 25 25 26 26 27 28 29 30 31 32 33 34 36 37 39 41 42 42 44 47 49 50 49 48 48 48 47
7 7 7 7 9 11 12 14 15 15 16 17 17 16 16 15 15 17 20 22 23 24 23 22 21 20 19 20 20 21 22 23 23 24 24 24 24 24 25 25 26 27 28 29 30 31 33 34 35 37 39 40 40 41 43 45 46 45 45 45 45 45 46
7 6 6 6 9 12 13 15 15 15 14 15 16 16 17 17 17 19 21 22 22 22 21 19 18 16 15 15 16 18 19 20 21 22 22 22 22 22 23 23 24 25 27 28 30 30 32 33 35 37 38 38 39 40 43 44 43 41 41 41 42 43 43
5 5 6 8 10 14 16 15 15 15 15 14 15 15 17 18 18 19 20 20 20 19 19 18 17 15 14 14 15 15 16 18 19 19 19 19 19 20 20 21 23 25 26 28 29 29 31 33 35 36 37 37 38 40 42 42 40 38 38 38 40 41 40
2 2 4 7 10 15 17 16 16 16 15 14 15 16 18 19 18 18 18 18 18 18 18 18 16 14 14 14 14 15 16 16 17 17 16 16 17 18 19 21 22 24 25 27 27 29 31 33 34 35 36 37 39 40 41 40 39 37 35 34 36 38 39
4 4 4 6 7 11 14 15 15 16 15 14 16 17 19 19 18 17 17 17 16 17 18 18 17 14 14 14 15 15 15 15 15 14 14 15 16 17 19 21 22 23 24 25 27 29 31 32 33 34 35 37 39 40 39 39 38 36 34 32 33 34 36
5 6 7 7 6 8 11 12 13 14 14 13 14 16 17 18 17 17 17 16 16 17 18 17 16 15 14 15 15 15 14 14 13 13 13 15 16 17 19 20 21 22 23 25 27 29 30 31 32 33 35 37 38 39 38 37 36 35 34 32 32 32 33
2 7 10 11 9 8 9 10 11 12 12 11 12 14 15 16 16 15 15 15 15 16 16 15 14 14 14 14 14 14 13 13 13 13 13 15 16 17 18 19 20 21 23 25 27 29 30 30 31 33 35 36 37 37 37 35 34 33 33 32 32 32 32
1 4 8 11 12 11 11 11 11 12 11 11 11 12 13 14 14 14 15 14 14 15 15 14 13 14 14 14 14 14 13 13 13 13 13 14 15 16 17 18 20 21 23 25 27 28 29 30 31 33 34 36 37 36 35 34 33 32 31 31 31 32 32
4 2 4 8 11 12 13 13 13 13 12 12 12 12 13 13 14 14 14 14 14 14 14 14 14 14 15 15 15 14 14 13 13 13 14 14 15 15 16 18 20 22 24 25 27 28 29 30 31 32 34 35 35 35 34 33 33 32 30 29 30 30 32
8 6 4 4 6 8 10 12 12 13 13 13 14 14 14 14 15 15 15 15 14 14 15 16 16 16 16 16 15 14 14 14 14 13 13 13 14 15 16 18 20 22 24 25 27 28 28 30 31 32 33 34 34 33 33 32 31 31 30 29 28 28 29
Wind_Direction
258 258 257 256 254 254 255 256 257 257 257 258 258 257 257 258 259 256 252 252 253 253 255 257 257 258 259 261 262 262 263 262 261 261 261 261 260 258 256 256 257 257 257 257 259 261 264 266 269 270 272 273 275 278 281 283 285 287 289 291 291 291 293
260 259 258 257 255 253 253 253 253 254 254 255 255 256 256 256 257 255 250 249 250 251 253 254 255 257 259 261 263 264 264 263 262 262 262 262 261 259 258 258 257 257 257 257 259 262 264 267 269 269 270 272 274 278 281 283 286 288 290 291 291 292 292
259 259 258 256 254 253 252 252 251 251 251 252 253 254 254 254 255 254 250 247 247 248 250 252 253 255 258 260 262 264 265 264 263 262 262 261 261 260 259 259 259 258 258 258 259 261 263 265 267 269 270 272 275 277 280 283 286 288 289 290 291 292 292
258 258 256 255 253 251 250 250 251 250 249 250 251 252 252 253 254 254 250 247 246 246 248 250 252 254 255 258 261 264 264 263 262 261 261 261 261 261 262 262 262 261 260 260 259 260 262 264 267 269 271 273 275 277 280 284 286 287 288 289 291 292 291
260 259 257 255 253 250 248 248 249 249 248 248 249 250 250 251 253 254 251 248 246 245 246 248 250 252 254 257 261 263 261 259 258 258 259 260 261 262 262 263 263 263 262 262 260 260 261 264 267 269 272 274 276 278 281 284 286 287 288 289 290 291 291
263 261 259 257 254 251 249 246 245 245 245 246 246 248 248 249 251 253 253 251 248 245 245 247 248 250 253 257 261 262 259 255 254 255 257 259 261 262 264 265 266 266 265 264 262 261 262 264 267 270 272 275 277 280 283 284 285 287 288 290 290 291 291
266 264 262 260 257 254 251 247 244 241 240 242 243 244 245 246 248 251 253 254 251 246 244 246 247 248 251 255 259 260 257 253 253 254 257 260 261 263 264 266 267 268 267 266 264 264 264 265 268 271 273 276 278 281 283 284 285 287 289 290 290 291 292
267 265 264 262 260 257 254 250 246 240 236 236 238 239 241 242 244 247 250 252 251 246 243 244 246 248 250 254 258 258 254 250 251 254 257 260 261 262 263 264 266 269 270 269 267 266 266 267 270 272 274 277 279 281 282 284 287 288 289 289 290 292 292
270 268 266 265 263 260 256 252 248 241 234 231 232 234 236 239 241 242 245 249 249 244 242 244 246 247 248 251 255 253 249 247 249 254 259 263 266 266 264 263 266 269 270 270 269 269 268 270 272 273 275 277 278 280 283 286 288 288 289 290 291 292 292
274 272 271 269 266 264 260 254 250 243 235 230 229 230 231 233 237 239 240 244 245 243 244 245 246 247 247 248 250 248 245 246 251 257 263 267 271 274 271 267 267 268 269 270 271 271 271 272 274 274 274 275 277 280 284 287 288 289 289 290 291 291 292
276 275 274 272 268 265 262 257 251 244 236 230 230 231 230 230 232 234 236 238 240 241 242 245 247 248 249 249 249 245 244 248 254 259 265 270 273 277 278 275 271 269 269 270 271 271 272 274 274 274 274 276 278 282 286 288 289 289 290 290 291 292 293
275 273 272 272 272 270 266 259 251 244 236 230 228 230 232 232 232 232 233 235 237 237 238 242 246 250 251 251 247 243 243 249 254 259 265 269 272 276 278 278 274 270 269 269 269 270 273 275 274 274 275 277 281 285 288 289 290 290 290 291 291 292 294
271 267 264 269 274 275 272 260 247 240 234 227 226 227 230 232 234 233 232 233 236 237 237 239 244 249 251 249 243 241 244 250 255 259 263 268 271 274 276 277 275 271 268 267 268 270 273 274 274 275 277 280 284 287 288 289 289 289 290 291 292 294 295
271 263 259 264 270 272 269 254 238 231 227 225 225 226 227 229 232 233 231 231 234 237 238 239 243 247 247 244 241 243 248 253 257 261 264 268 272 274 276 276 274 269 265 264 266 270 272 274 275 278 280 283 286 287 288 288 289 289 290 291 293 295 296
270 257 255 264 268 265 257 240 228 223 222 223 224 225 226 227 229 231 229 229 232 235 237 240 243 245 244 242 243 248 253 255 258 263 267 270 272 274 275 274 270 265 262 263 267 270 271 274 277 281 283 285 286 287 287 288 288 289 291 292 294 296 298
264 250 253 265 264 254 242 227 222 220 220 222 223 224 226 227 229 229 226 227 230 234 238 241 243 241 240 242 246 250 253 254 259 265 268 270 271 273 273 269 264 262 262 264 267 269 271 274 279 283 284 285 286 286 286 288 289 290 292 293 295 298 300
257 247 253 263 257 246 233 222 219 220 220 219 220 223 224 224 228 228 225 227 231 235 238 241 241 240 241 245 248 251 253 255 259 264 266 268 270 270 268 263 260 261 263 265 268 270 273 276 280 283 284 284 285 286 287 289 290 291 294 296 298 300 302
249 244 251 256 248 238 227 220 219 218 217 216 217 221 219 218 225 228 227 229 233 236 239 241 242 242 244 247 250 252 253 256 259 262 263 265 267 265 261 258 258 261 263 266 269 272 275 277 279 281 283 284 286 287 289 291 292 293 295 298 300 301 303
241 240 246 240 233 229 223 221 220 216 212 212 216 218 212 213 220 223 224 228 232 235 240 243 245 244 245 248 251 253 255 258 259 260 260 263 264 261 257 257 259 262 265 267 270 273 275 277 279 281 283 285 287 289 290 292 293 295 297 300 302 303 306
234 237 231 216 225 233 226 217 212 209 208 212 218 220 216 214 217 219 222 227 230 234 241 246 248 247 246 248 251 255 259 259 257 257 259 261 262 259 256 257 260 263 266 269 271 273 275 277 280 282 284 286 288 290 292 293 295 297 299 301 303 305 309
225 229 219 208 220 222 208 198 197 204 210 213 217 219 217 217 219 221 225 230 233 235 240 246 249 249 248 250 254 256 257 255 253 256 259 260 260 257 256 259 262 265 267 269 271 274 276 279 281 283 285 288 290 291 293 294 297 299 301 303 305 309 313
218 225 222 207 199 191 187 189 197 208 212 209 208 211 212 215 223 229 233 237 238 239 242 246 248 249 252 255 255 252 250 249 251 255 257 257 257 255 256 259 262 264 267 269 271 274 278 280 283 285 288 289 291 292 294 296 299 302 304 306 309 312 315
213 227 232 210 188 187 195 199 199 203 206 205 206 211 216 224 233 237 240 242 244 245 248 250 251 251 252 252 248 245 246 248 251 252 253 253 253 254 256 259 261 263 266 268 272 276 279 282 285 287 289 290 292 294 296 299 302 305 308 310 312 314 316
205 224 234 219 198 198 203 200 193 192 201 212 219 224 229 234 234 231 232 237 243 247 249 249 248 248 247 245 244 246 248 249 249 250 250 250 251 252 255 257 259 262 265 269 274 278 281 284 286 287 289 291 293 297 300 303 306 309 311 312 313 315 317
193 211 219 215 207 201 195 194 195 197 207 220 228 229 228 226 223 221 226 235 242 243 241 241 242 244 246 246 247 247 246 245 246 246 246 247 248 250 253 256 260 264 268 273 277 280 282 284 286 287 290 292 296 300 303 307 309 311 312 314 315 316 317
174 196 205 210 206 193 185 196 208 212 214 218 221 219 213 211 215 224 233 236 237 235 234 238 243 247 248 247 245 242 240 240 241 241 242 244 247 250 255 259 263 268 272 276 279 281 282 284 286 288 291 294 298 303 307 310 312 313 314 315 316 316 318
150 170 188 197 193 184 184 199 209 212 211 212 212 211 211 215 224 232 235 235 235 234 235 241 247 248 245 242 240 238 237 237 238 239 242 246 250 254 259 263 268 272 275 277 279 281 283 284 287 290 293 297 301 305 308 311 313 314 314 315 316 317 319
130 143 168 186 189 188 190 196 198 198 201 207 211 216 221 225 229 232 233 235 236 235 235 240 246 246 242 241 240 239 238 238 239 242 245 249 253 258 263 268 272 274 276 278 279 281 284 286 289 293 296 301 304 307 310 312 314 315 315 314 316 318 320
116 141 169 181 182 185 188 191 190 191 197 206 214 219 223 224 226 229 233 235 234 232 233 238 245 247 246 246 246 244 243 243 243 244 248 253 258 264 268 272 275 275 276 278 279 282 286 289 292 296 299 303 306 308 312 314 315 316 315 314 316 319 321
137 164 181 180 177 180 185 188 191 195 203 211 214 216 219 221 224 227 229 231 230 228 231 238 244 248 249 249 249 248 247 247 247 249 255 260 265 271 273 274 275 275 276 278 281 284 289 292 295 300 303 305 308 310 314 316 316 316 315 315 318 321 323
201 224 220 201 187 184 186 190 196 204 212 214 214 216 220 223 225 225 225 226 226 226 231 238 242 247 249 249 250 251 251 252 253 257 264 269 272 274 274 274 275 275 276 280 284 288 292 295 299 303 305 307 309 312 316 317 316 316 316 317 320 323 324
205 221 228 223 208 195 193 196 202 207 213 215 216 220 222 222 223 224 225 227 227 228 233 237 240 246 251 252 254 256 256 259 263 267 272 274 274 274 273 273 273 274 278 283 288 291 295 299 302 305 306 308 311 315 317 317 316 317 318 319 321 324 326
218 217 222 224 223 217 211 210 212 216 220 221 219 221 222 221 221 225 228 230 232 233 235 237 242 250 255 256 258 261 263 268 271 273 274 275 273 272 271 271 272 276 282 287 291 295 298 302 304 305 306 309 313 315 317 317 317 318 318 319 322 325 327
65 204 210 211 214 219 221 223 227 230 230 226 219 217 218 219 221 226 229 232 235 235 235 238 245 254 259 259 260 264 269 273 275 276 275 274 271 269 268 270 275 281 287 291 295 299 301 303 304 305 308 311 314 316 317 317 318 318 318 320 322 324 326
70 137 180 190 195 203 211 218 223 227 229 228 224 221 219 219 221 225 228 231 234 237 239 242 248 255 260 262 263 267 272 275 277 277 274 270 267 266 269 274 280 287 292 296 299 302 303 303 304 307 310 313 315 315 316 317 318 318 318 318 319 322 324
64 80 104 144 173 189 201 211 217 221 224 226 227 227 227 226 226 227 229 232 236 239 241 241 245 252 259 261 263 267 273 276 276 274 269 264 263 266 273 280 286 291 296 300 302 302 302 303 305 308 311 313 314 315 316 317 317 316 316 316 317 319 322